Location: Atlanta
(33.7490°N, 84.3880°W)
Time: 07:10:39
(UTC-05:00)

Daily predictions for brighter satellites

Satellite Brightness Start Highest point End
(mag) Time Altitude Azimuth Time Altitude Azimuth Time Altitude Azimuth
Meteor 2-4 Rocket 3.7 17:48:56 10° S 17:54:16 58° E 17:59:32 10° NNE
NOSS 3-4 (A) 3.8 17:49:15 10° S 17:55:13 51° ESE 18:01:18 10° NE
NOSS 3-4 (C) 3.8 17:49:22 10° S 17:55:19 50° ESE 18:01:23 10° NE
Cosmos 1975 4.0 17:57:22 10° NNW 18:01:16 47° W 18:05:10 10° SSW
Cosmos 2369 3.8 17:57:33 10° SSW 18:03:13 84° WNW 18:08:57 10° NNE
Cosmos 2278 3.8 17:57:43 10° SSW 18:03:24 89° WNW 18:09:08 10° NNE
AQUARIUS 4.2 17:59:05 10° SSE 18:03:31 62° ENE 18:07:57 10° N
ISS -3.9 18:00:15 10° NW 18:03:31 71° NE 18:06:47 10° SE
RESURS DK-1 4.1 18:02:55 10° SE 18:05:17 15° ESE 18:07:40 10° ENE
SJ 16-02 1.4 18:01:55 10° SSW 18:06:17 87° WNW 18:10:42 10° NNE
CSL-04 Rocket 3.7 18:01:31 10° SSE 18:06:55 84° ENE 18:12:26 10° NNW
CZ-2C R/B 4.2 18:02:38 10° SSW 18:07:26 38° W 18:12:15 10° NNW
COSMO-SKYMED 1 3.3 18:05:24 10° NNE 18:09:21 33° E 18:13:16 10° SSE
Meteor 1-13 Rocket 4.5 18:04:03 10° SSW 18:09:36 75° W 18:15:18 10° N
Meteor 1-28 Rocket 3.2 18:08:22 10° N 18:12:09 85° W 18:15:56 10° SSW
IRAS Rocket 4.3 18:07:17 10° SSE 18:12:45 88° WSW 18:18:15 10° NNW
CENTAUR R/B 4.3 18:08:53 10° N 18:14:11 19° NE 18:19:24 11° E
Hubble Space Telescope 2.7 18:12:29 10° WSW 18:15:59 27° SSW 18:19:29 10° SE
DELTA 2 R/B (2) 3.8 18:15:01 10° WSW 18:17:27 82° SSE 18:20:10 15° ENE
Cosmos 1697 Rocket 2.7 18:13:03 10° SSW 18:18:41 74° ESE 18:24:19 10° NNE
NOSS 2-2 (E) 4.4 18:15:41 10° S 18:18:57 27° ESE 18:21:38 14° ENE
Cosmos 1515 4.0 18:16:54 10° SSE 18:20:28 42° E 18:24:04 10° NNE
Cosmos 1743 4.4 18:20:37 10° NNW 18:24:13 38° W 18:27:50 10° SSW
CZ-4 R/B 1.2 18:20:41 10° SSE 18:24:31 80° ENE 18:28:27 10° N
NOSS 2-2 (C) 4.4 18:22:36 10° S 18:25:53 27° ESE 18:28:01 17° ENE
Shenzhou-11 Module 4.2 18:24:22 10° S 18:26:11 15° SE 18:27:25 12° ESE
CZ-2C R/B 3.9 18:21:31 10° N 18:26:15 84° WNW 18:31:00 10° SSW
EO 1 Del DPAF 3.7 18:22:45 10° NNE 18:26:21 39° E 18:29:55 10° S
SPOT 3 Rocket 4.2 18:22:52 10° SE 18:27:24 32° ENE 18:31:56 10° N
Cosmos 1025 Rocket 3.2 18:24:50 10° SSE 18:28:57 46° E 18:33:03 10° NNE
Ariane Rocket 3.4 18:24:35 10° S 18:29:36 66° WSW 18:34:38 10° NNW
Meteor 1-15 Rocket 4.4 18:25:42 10° N 18:31:29 53° E 18:37:10 10° SSE
Okean 1-7 Rocket 4.0 18:31:05 10° SSE 18:35:11 40° E 18:39:19 10° NNE
ERS-2 2.7 18:32:09 10° SE 18:35:28 34° ENE 18:38:48 10° N
Cosmos 2082 3.7 18:31:27 10° NNW 18:37:05 90° N 18:42:43 10° SSE
SMAP 4.0 18:32:54 10° S 18:37:25 52° W 18:41:58 10° NNW
Cosmos 2084 3.6 18:34:06 10° SW 18:38:20 70° WNW 18:41:44 14° NNE
SKYMED 3 4.5 18:35:07 10° NNE 18:39:28 80° ESE 18:43:48 10° S
Landsat 4 3.8 18:37:03 10° N 18:40:52 77° WNW 18:44:39 10° SSW
USA 238 DEB 4.2 18:38:58 10° NW 18:46:03 68° WSW 18:53:10 10° SSE
Okean 2 3.2 18:42:02 10° S 18:46:07 80° E 18:50:12 10° N
USA 238 4.2 18:39:04 10° NW 18:46:09 69° WSW 18:53:17 10° SSE
Cosmos 2227 Rocket 3.0 18:42:28 10° NNW 18:47:59 55° WSW 18:53:27 10° S
Cosmos 1269 Rocket 4.0 18:42:57 10° NNW 18:48:16 88° ENE 18:53:33 10° SSE
Cosmos 1184 Rocket 3.3 18:46:46 10° SSE 18:49:47 36° E 18:49:51 36° E
ALOS 2.2 18:47:57 10° SSE 18:52:30 58° ENE 18:57:05 10° N
SKYMED 2 4.0 18:53:09 10° N 18:57:26 61° WNW 19:01:42 10° SSW
Cosmos 1980 Rocket 2.2 18:54:28 10° SSW 19:00:08 86° WNW 19:05:03 14° NNE
Cosmos 1606 Rocket 4.0 19:02:51 36° E 19:02:51 36° E 19:06:16 10° SSE
SL-8 R/B 3.6 18:58:46 10° SW 19:03:34 72° SE 19:05:15 40° ENE
Cosmos 1066 Rocket 4.1 18:58:16 10° S 19:03:42 58° E 19:07:38 18° NNE
Nadezhda 2 Rocket 4.5 18:58:14 10° N 19:04:37 86° E 19:11:02 10° S
MOS 1 4.4 19:03:21 10° S 19:09:01 80° WSW 19:14:44 10° NNW
Cosmos 2297 Rocket 3.7 19:09:07 10° NW 19:14:17 37° WSW 19:19:26 10° S
NOSS 3-2 (A) 4.2 19:06:35 10° NNW 19:14:22 79° WSW 19:22:41 10° SSE
GOES 2 Rocket 4.4 19:12:26 10° WSW 19:16:27 35° S 19:18:46 23° SE
NOSS 3-2 (C) 4.0 19:14:57 10° NNW 19:22:46 90° NE 19:31:07 10° SSE
Cosmos 1892 Rocket 3.4 19:20:26 10° S 19:24:54 81° E 19:25:33 64° NNE
ATLAS 3B R/B 4.3 19:20:12 10° NW 19:25:55 32° WSW 19:31:34 10° S
NOAA 12 4.4 19:21:25 10° S 19:26:39 68° WSW 19:31:53 10° NNW
Atlas Centaur 2 3.7 19:24:15 10° WSW 19:28:14 22° SSW 19:30:50 14° SSE
OAO 1 Rocket 4.3 19:23:02 10° W 19:28:23 87° N 19:29:12 65° E
Cosmos 2344 3.7 19:21:56 10° S 19:29:24 52° ESE 19:31:20 43° ENE
Lacrosse 5 rocket 1.9 19:26:14 10° SSW 19:29:24 46° S 19:29:24 46° S
USA 215 4.0 19:24:06 10° SSE 19:30:25 52° SW 19:36:46 10° NW
DELTA 2 R/B (1) 3.5 19:25:44 10° WNW 19:31:17 66° NNE 19:31:48 62° NE
Cosmos 2227 4.5 19:29:29 10° NNW 19:34:03 49° NNE 19:34:03 49° NNE
S3M 3.9 19:34:05 10° S 19:40:13 85° W 19:44:08 24° N
SL-16 R/B 2.1 19:37:13 10° S 19:42:33 69° SE 19:42:33 69° SE
RESURS DK-1 3.8 19:39:16 10° SW 19:42:59 33° WNW 19:43:46 31° NW
Cosmos 2322 Rocket 2.1 19:41:36 10° SSW 19:46:37 68° SSE 19:46:37 68° SSE
Hubble Space Telescope 3.7 19:56:16 10° SSW 19:56:37 10° SSW 19:56:59 10° SSW
CENTAUR R/B 3.0 19:58:02 10° NNW 20:06:10 76° ENE 20:06:44 73° E
